| time (UTC) | temp F | wind direction | speed knots | gust knots | rain 1hr in | rain 24hr in | rain mn in | humidity % | barometer mb |
| 20260901233746 | 83 | 254 | 1.7 | 8.7 | 0.00 | 0.00 | 0.00 | 35 | 1016.8 |
| 20260901233246 | 83 | 275 | 6.1 | 10.4 | 0.00 | 0.00 | 0.00 | 35 | 1016.9 |
| 20260901232746 | 83 | 203 | 3.5 | 10.4 | 0.00 | 0.00 | 0.00 | 35 | 1017.0 |
| 20260901231746 | 83 | 248 | 3.5 | 11.3 | 0.00 | 0.00 | 0.00 | 34 | 1017.0 |
| 20260901230746 | 84 | 227 | 7.0 | 12.2 | 0.00 | 0.00 | 0.00 | 34 | 1017.1 |
| 20260901230246 | 85 | 223 | 5.2 | 12.2 | 0.00 | 0.00 | 0.00 | 34 | 1017.2 |
| 20260901225746 | 85 | 227 | 3.5 | 11.3 | 0.00 | 0.00 | 0.00 | 33 | 1017.4 |
| 20260901225246 | 85 | 232 | 4.3 | 10.4 | 0.00 | 0.00 | 0.00 | 33 | 1017.5 |
| 20260901224746 | 85 | 230 | 7.8 | 12.2 | 0.00 | 0.00 | 0.00 | 33 | 1017.6 |
| 20260901224246 | 85 | 236 | 1.7 | 12.2 | 0.00 | 0.00 | 0.00 | 34 | 1017.5 |
| 20260901223746 | 85 | 230 | 5.2 | 10.4 | 0.00 | 0.00 | 0.00 | 33 | 1017.6 |
| 20260901223235 | 85 | 240 | 5.2 | 10.4 | 0.00 | 0.00 | 0.00 | 32 | 1017.5 |
| 20260901222746 | 85 | 240 | 10.4 | 10.4 | 0.00 | 0.00 | 0.00 | 30 | 1017.6 |
| 20260901222246 | 86 | 215 | 6.1 | 13.0 | 0.00 | 0.00 | 0.00 | 30 | 1017.7 |
| 20260901221746 | 86 | 253 | 6.1 | 13.0 | 0.00 | 0.00 | 0.00 | 29 | 1017.7 |
| 20260901220745 | 86 | 238 | 8.7 | 13.0 | 0.00 | 0.00 | 0.00 | 28 | 1017.7 |
| 20260901220245 | 86 | 337 | 1.7 | 13.0 | 0.00 | 0.00 | 0.00 | 27 | 1017.6 |
| 20260901215746 | 87 | 236 | 12.2 | 12.2 | 0.00 | 0.00 | 0.00 | 26 | 1018.0 |
| 20260901215246 | 87 | 223 | 5.2 | 12.2 | 0.00 | 0.00 | 0.00 | 26 | 1018.1 |
| 20260901214745 | 86 | 248 | 3.5 | 13.0 | 0.00 | 0.00 | 0.00 | 26 | 1017.8 |
| 20260901214245 | 87 | 193 | 7.0 | 13.0 | 0.00 | 0.00 | 0.00 | 24 | 1018.1 |
| 20260901213745 | 87 | 233 | 8.7 | 11.3 | 0.00 | 0.00 | 0.00 | 24 | 1018.1 |
| 20260901212745 | 88 | 189 | 4.3 | 11.3 | 0.00 | 0.00 | 0.00 | 23 | 1018.1 |
| 20260901212245 | 88 | 215 | 7.0 | 10.4 | 0.00 | 0.00 | 0.00 | 24 | 1018.2 |
| 20260901211745 | 88 | 201 | 4.3 | 10.4 | 0.00 | 0.00 | 0.00 | 24 | 1018.2 |
| 20260901211245 | 88 | 259 | 3.5 | 12.2 | 0.00 | 0.00 | 0.00 | 24 | 1018.2 |
| 20260901210745 | 88 | 185 | 2.6 | 12.2 | 0.00 | 0.00 | 0.00 | 23 | 1018.2 |
| 20260901210245 | 88 | 211 | 3.5 | 12.2 | 0.00 | 0.00 | 0.00 | 24 | 1018.2 |
| 20260901205744 | 87 | 250 | 4.3 | 12.2 | 0.00 | 0.00 | 0.00 | 25 | 1018.3 |
| 20260901204744 | 87 | 217 | 1.7 | 12.2 | 0.00 | 0.00 | 0.00 | 26 | 1018.2 |
| 20260901203744 | 88 | 232 | 4.3 | 11.3 | 0.00 | 0.00 | 0.00 | 26 | 1018.3 |
| 20260901203233 | 88 | 248 | 1.7 | 10.4 | 0.00 | 0.00 | 0.00 | 26 | 1018.3 |
| 20260901202744 | 88 | 208 | 3.5 | 11.3 | 0.00 | 0.00 | 0.00 | 26 | 1018.3 |
| 20260901202244 | 88 | 215 | 4.3 | 11.3 | 0.00 | 0.00 | 0.00 | 27 | 1018.3 |
| 20260901201744 | 87 | 211 | 1.7 | 10.4 | 0.00 | 0.00 | 0.00 | 27 | 1018.4 |
| 20260901201244 | 87 | 262 | 7.0 | 11.3 | 0.00 | 0.00 | 0.00 | 27 | 1018.6 |
| 20260901200744 | 87 | 249 | 3.5 | 11.3 | 0.00 | 0.00 | 0.00 | 26 | 1018.5 |
| 20260901200244 | 87 | 227 | 0.9 | 10.4 | 0.00 | 0.00 | 0.00 | 25 | 1018.5 |
| 20260901195744 | 87 | 232 | 0.0 | 7.8 | 0.00 | 0.00 | 0.00 | 24 | 1018.5 |
| 20260901195244 | 87 | 239 | 4.3 | 9.6 | 0.00 | 0.00 | 0.00 | 24 | 1018.4 |
| 20260901194744 | 86 | 257 | 0.9 | 9.6 | 0.00 | 0.00 | 0.00 | 24 | 1018.5 |
| 20260901194244 | 85 | 219 | 0.9 | 9.6 | 0.00 | 0.00 | 0.00 | 25 | 1018.4 |
| 20260901193743 | 85 | 228 | 0.9 | 9.6 | 0.00 | 0.00 | 0.00 | 24 | 1018.3 |
| 20260901193243 | 85 | 227 | 3.5 | 12.2 | 0.00 | 0.00 | 0.00 | 24 | 1018.4 |
| 20260901192744 | 86 | 236 | 9.6 | 12.2 | 0.00 | 0.00 | 0.00 | 23 | 1018.9 |
| 20260901192244 | 85 | 248 | 7.8 | 12.2 | 0.00 | 0.00 | 0.00 | 25 | 1018.6 |
| 20260901191732 | 85 | 254 | 3.5 | 11.3 | 0.00 | 0.00 | 0.00 | 25 | 1018.6 |
| 20260901191243 | 85 | 225 | 1.7 | 10.4 | 0.00 | 0.00 | 0.00 | 24 | 1018.5 |
| 20260901190743 | 85 | 240 | 10.4 | 10.4 | 0.00 | 0.00 | 0.00 | 26 | 1018.7 |
| 20260901190243 | 84 | 223 | 1.7 | 7.8 | 0.00 | 0.00 | 0.00 | 25 | 1018.6 |
| 20260901185243 | 84 | 236 | 2.6 | 11.3 | 0.00 | 0.00 | 0.00 | 27 | 1018.9 |
| 20260901184743 | 85 | 259 | 7.0 | 11.3 | 0.00 | 0.00 | 0.00 | 26 | 1019.1 |
| 20260901184243 | 84 | 220 | 5.2 | 8.7 | 0.00 | 0.00 | 0.00 | 26 | 1019.0 |
| 20260901183243 | 84 | 234 | 6.1 | 9.6 | 0.00 | 0.00 | 0.00 | 25 | 1019.0 |
| 20260901182743 | 84 | 229 | 5.2 | 8.7 | 0.00 | 0.00 | 0.00 | 25 | 1018.9 |
| 20260901181742 | 83 | 221 | 1.7 | 9.6 | 0.00 | 0.00 | 0.00 | 24 | 1019.0 |
| 20260901181243 | 83 | 197 | 2.6 | 7.0 | 0.00 | 0.00 | 0.00 | 23 | 1019.0 |
| 20260901180243 | 83 | 234 | 5.2 | 9.6 | 0.00 | 0.00 | 0.00 | 23 | 1019.1 |
| 20260901175743 | 84 | 223 | 0.9 | 10.4 | 0.00 | 0.00 | 0.00 | 24 | 1019.3 |
| 20260901175242 | 84 | 246 | 6.1 | 10.4 | 0.00 | 0.00 | 0.00 | 22 | 1019.3 |
| 20260901174742 | 83 | 263 | 0.0 | 5.2 | 0.00 | 0.00 | 0.00 | 17 | 1018.9 |
| 20260901174243 | 82 | 300 | 0.0 | 4.3 | 0.00 | 0.00 | 0.00 | 17 | 1018.9 |
| 20260901173743 | 83 | 263 | 2.6 | 3.5 | 0.00 | 0.00 | 0.00 | 16 | 1018.9 |
| 20260901173243 | 83 | 269 | 2.6 | 7.0 | 0.00 | 0.00 | 0.00 | 16 | 1018.8 |
| 20260901172742 | 83 | 317 | 0.9 | 7.0 | 0.00 | 0.00 | 0.00 | 16 | 1018.7 |
| 20260901172242 | 83 | 333 | 0.9 | 4.3 | 0.00 | 0.00 | 0.00 | 16 | 1018.7 |
| 20260901171742 | 83 | 262 | 2.6 | 6.1 | 0.00 | 0.00 | 0.00 | 15 | 1018.6 |
| 20260901171242 | 83 | 303 | 3.5 | 6.1 | 0.00 | 0.00 | 0.00 | 16 | 1018.6 |
| 20260901170242 | 83 | 242 | 1.7 | 4.3 | 0.00 | 0.00 | 0.00 | 15 | 1018.3 |
| 20260901165741 | 83 | 278 | 0.0 | 4.3 | 0.00 | 0.00 | 0.00 | 15 | 1018.5 |
| 20260901164742 | 81 | 249 | 1.7 | 7.0 | 0.00 | 0.00 | 0.00 | 16 | 1018.2 |
| 20260901164242 | 81 | 205 | 0.9 | 5.2 | 0.00 | 0.00 | 0.00 | 16 | 1018.2 |
| 20260901163742 | 80 | 178 | 2.6 | 7.8 | 0.00 | 0.00 | 0.00 | 17 | 1018.0 |
| 20260901162742 | 79 | 257 | 2.6 | 7.8 | 0.00 | 0.00 | 0.00 | 16 | 1017.9 |
| 20260901162242 | 79 | 246 | 7.8 | 7.8 | 0.00 | 0.00 | 0.00 | 17 | 1017.7 |
| 20260901161741 | 78 | 262 | 5.2 | 7.0 | 0.00 | 0.00 | 0.00 | 17 | 1017.4 |
| 20260901161241 | 77 | 245 | 0.9 | 7.0 | 0.00 | 0.00 | 0.00 | 17 | 1017.3 |
| 20260901160741 | 77 | 253 | 3.5 | 7.0 | 0.00 | 0.00 | 0.00 | 17 | 1017.3 |
| 20260901160241 | 77 | 247 | 0.9 | 7.0 | 0.00 | 0.00 | 0.00 | 17 | 1017.3 |
| 20260901155741 | 77 | 254 | 2.6 | 7.8 | 0.00 | 0.00 | 0.00 | 17 | 1017.3 |
| 20260901155241 | 77 | 269 | 0.9 | 7.8 | 0.00 | 0.00 | 0.00 | 18 | 1017.2 |
| 20260901154741 | 76 | 248 | 4.3 | 7.0 | 0.00 | 0.00 | 0.00 | 17 | 1017.1 |
| 20260901153241 | 76 | 229 | 2.6 | 5.2 | 0.00 | 0.00 | 0.00 | 18 | 1017.0 |
| 20260901152740 | 75 | 230 | 0.0 | 3.5 | 0.00 | 0.00 | 0.00 | 19 | 1016.9 |
| 20260901152241 | 74 | 60 | 0.0 | 1.7 | 0.00 | 0.00 | 0.00 | 21 | 1016.9 |
| 20260901151740 | 73 | 51 | 0.0 | 0.9 | 0.00 | 0.00 | 0.00 | 22 | 1016.6 |
| 20260901151241 | 72 | 51 | 0.0 | 1.7 | 0.00 | 0.00 | 0.00 | 25 | 1016.6 |
| 20260901150240 | 69 | 51 | 0.9 | 2.6 | 0.00 | 0.00 | 0.00 | 27 | 1016.2 |
| 20260901145740 | 67 | 50 | 0.9 | 3.5 | 0.00 | 0.00 | 0.00 | 29 | 1016.6 |
| 20260901145240 | 65 | 54 | 1.7 | 3.5 | 0.00 | 0.00 | 0.00 | 30 | 1016.3 |
| 20260901144740 | 64 | 51 | 0.9 | 3.5 | 0.00 | 0.00 | 0.00 | 31 | 1016.1 |
| 20260901144240 | 63 | 57 | 0.9 | 3.5 | 0.00 | 0.00 | 0.00 | 32 | 1016.2 |
| 20260901143740 | 62 | 55 | 2.6 | 3.5 | 0.00 | 0.00 | 0.00 | 33 | 1015.9 |
| 20260901143240 | 61 | 47 | 1.7 | 4.3 | 0.00 | 0.00 | 0.00 | 33 | 1015.8 |
| 20260901142240 | 59 | 53 | 2.6 | 7.0 | 0.00 | 0.00 | 0.00 | 34 | 1015.7 |
| 20260901141240 | 57 | 73 | 6.1 | 7.0 | 0.00 | 0.00 | 0.00 | 35 | 1015.5 |
| 20260901140740 | 56 | 72 | 3.5 | 7.0 | 0.00 | 0.00 | 0.00 | 35 | 1015.1 |
| 20260901140240 | 56 | 78 | 4.3 | 7.0 | 0.00 | 0.00 | 0.00 | 35 | 1015.0 |
| 20260901135739 | 55 | 46 | 3.5 | 7.0 | 0.00 | 0.00 | 0.00 | 35 | 1015.7 |
| 20260901134741 | 55 | 46 | 4.3 | 7.0 | 0.00 | 0.00 | 0.00 | 35 | 1015.7 |
| 20260901134240 | 55 | 89 | 3.5 | 5.2 | 0.00 | 0.00 | 0.00 | 35 | 1015.7 |
| 20260901133239 | 55 | 38 | 2.6 | 5.2 | 0.00 | 0.00 | 0.00 | 36 | 1015.6 |
| 20260901132739 | 54 | 51 | 2.6 | 5.2 | 0.00 | 0.00 | 0.00 | 36 | 1015.6 |
| 20260901132239 | 55 | 74 | 2.6 | 6.1 | 0.00 | 0.00 | 0.00 | 36 | 1015.5 |
| 20260901131239 | 55 | 74 | 4.3 | 7.0 | 0.00 | 0.00 | 0.00 | 36 | 1015.7 |
| 20260901130739 | 55 | 40 | 3.5 | 7.0 | 0.00 | 0.00 | 0.00 | 36 | 1015.6 |
| 20260901125739 | 54 | 62 | 3.5 | 7.0 | 0.00 | 0.00 | 0.00 | 36 | 1016.3 |
| 20260901125239 | 54 | 65 | 4.3 | 7.0 | 0.00 | 0.00 | 0.00 | 37 | 1016.3 |
| 20260901123238 | 54 | 90 | 2.6 | 7.0 | 0.00 | 0.00 | 0.00 | 38 | 1016.2 |
| 20260901122738 | 54 | 63 | 4.3 | 7.0 | 0.00 | 0.00 | 0.00 | 38 | 1016.2 |
| 20260901122238 | 54 | 65 | 4.3 | 7.0 | 0.00 | 0.00 | 0.00 | 38 | 1016.2 |
| 20260901121727 | 54 | 72 | 2.6 | 7.0 | 0.00 | 0.00 | 0.00 | 38 | 1016.1 |
| 20260901120739 | 54 | 82 | 3.5 | 7.0 | 0.00 | 0.00 | 0.00 | 38 | 1016.0 |
| 20260901120238 | 55 | 83 | 3.5 | 7.0 | 0.00 | 0.00 | 0.00 | 39 | 1016.2 |
| 20260901115738 | 55 | 80 | 4.3 | 7.8 | 0.00 | 0.00 | 0.00 | 39 | 1016.6 |
| 20260901115238 | 55 | 65 | 5.2 | 7.8 | 0.00 | 0.00 | 0.00 | 40 | 1016.7 |
| 20260901113738 | 55 | 75 | 4.3 | 7.0 | 0.00 | 0.00 | 0.00 | 40 | 1016.6 |
| 20260901113238 | 55 | 71 | 3.5 | 7.0 | 0.00 | 0.00 | 0.00 | 41 | 1016.5 |
| 20260901112738 | 55 | 59 | 5.2 | 7.0 | 0.00 | 0.00 | 0.00 | 41 | 1016.5 |
| 20260901111738 | 55 | 55 | 3.5 | 6.1 | 0.00 | 0.00 | 0.00 | 42 | 1016.5 |
| 20260901111238 | 55 | 46 | 3.5 | 7.0 | 0.00 | 0.00 | 0.00 | 42 | 1016.5 |
| 20260901110737 | 55 | 78 | 4.3 | 7.0 | 0.00 | 0.00 | 0.00 | 43 | 1016.5 |
| 20260901110237 | 55 | 82 | 2.6 | 7.0 | 0.00 | 0.00 | 0.00 | 43 | 1016.5 |
| 20260901105737 | 55 | 57 | 2.6 | 7.0 | 0.00 | 0.00 | 0.00 | 45 | 1016.8 |
| 20260901105237 | 55 | 59 | 3.5 | 7.0 | 0.00 | 0.00 | 0.00 | 45 | 1016.8 |
| 20260901104737 | 55 | 58 | 2.6 | 5.2 | 0.00 | 0.00 | 0.00 | 46 | 1016.8 |
| 20260901103737 | 55 | 55 | 3.5 | 7.0 | 0.00 | 0.00 | 0.00 | 44 | 1016.8 |
| 20260901103237 | 55 | 66 | 2.6 | 7.0 | 0.00 | 0.00 | 0.00 | 45 | 1016.9 |
| 20260901102237 | 55 | 71 | 3.5 | 6.1 | 0.00 | 0.00 | 0.00 | 43 | 1016.9 |
| 20260901101737 | 55 | 39 | 3.5 | 6.1 | 0.00 | 0.00 | 0.00 | 43 | 1016.9 |
| 20260901101237 | 55 | 45 | 3.5 | 6.1 | 0.00 | 0.00 | 0.00 | 43 | 1017.0 |
| 20260901100737 | 55 | 51 | 3.5 | 6.1 | 0.00 | 0.00 | 0.00 | 43 | 1017.0 |
| 20260901100237 | 55 | 63 | 2.6 | 6.1 | 0.00 | 0.00 | 0.00 | 44 | 1016.9 |
| 20260901095737 | 55 | 61 | 3.5 | 6.1 | 0.00 | 0.00 | 0.00 | 44 | 1017.0 |
| 20260901094737 | 55 | 64 | 2.6 | 6.1 | 0.00 | 0.00 | 0.00 | 44 | 1017.0 |
| 20260901094236 | 55 | 63 | 3.5 | 6.1 | 0.00 | 0.00 | 0.00 | 45 | 1017.0 |
| 20260901093236 | 55 | 67 | 4.3 | 7.0 | 0.00 | 0.00 | 0.00 | 45 | 1017.0 |
| 20260901092737 | 55 | 69 | 5.2 | 7.0 | 0.00 | 0.00 | 0.00 | 45 | 1017.0 |
| 20260901092236 | 55 | 65 | 2.6 | 7.0 | 0.00 | 0.00 | 0.00 | 44 | 1017.0 |
| 20260901091737 | 55 | 57 | 1.7 | 7.0 | 0.00 | 0.00 | 0.00 | 44 | 1017.0 |
| 20260901091236 | 55 | 64 | 3.5 | 7.0 | 0.00 | 0.00 | 0.00 | 44 | 1017.0 |
| 20260901090737 | 55 | 63 | 4.3 | 7.0 | 0.00 | 0.00 | 0.00 | 44 | 1016.9 |
| 20260901085736 | 55 | 68 | 7.0 | 7.8 | 0.00 | 0.00 | 0.00 | 44 | 1017.0 |
| 20260901085236 | 56 | 76 | 4.3 | 7.0 | 0.00 | 0.00 | 0.00 | 44 | 1017.3 |
| 20260901084237 | 56 | 52 | 4.3 | 7.8 | 0.00 | 0.00 | 0.00 | 43 | 1017.4 |
| 20260901083736 | 56 | 69 | 3.5 | 7.8 | 0.00 | 0.00 | 0.00 | 44 | 1017.5 |
| 20260901082736 | 55 | 80 | 2.6 | 7.8 | 0.00 | 0.00 | 0.00 | 45 | 1017.2 |
| 20260901082235 | 56 | 74 | 1.7 | 7.8 | 0.00 | 0.00 | 0.00 | 45 | 1017.5 |
| 20260901081736 | 56 | 36 | 4.3 | 7.8 | 0.00 | 0.00 | 0.00 | 45 | 1017.4 |
| 20260901080735 | 56 | 63 | 4.3 | 7.0 | 0.00 | 0.00 | 0.00 | 45 | 1017.4 |
| 20260901080236 | 56 | 65 | 4.3 | 7.0 | 0.00 | 0.00 | 0.00 | 45 | 1017.4 |
| 20260901075735 | 56 | 59 | 3.5 | 7.0 | 0.00 | 0.00 | 0.00 | 46 | 1017.3 |
| 20260901075235 | 56 | 30 | 4.3 | 6.1 | 0.00 | 0.00 | 0.00 | 46 | 1017.3 |
| 20260901074735 | 56 | 75 | 4.3 | 6.1 | 0.00 | 0.00 | 0.00 | 46 | 1017.4 |
| 20260901073735 | 57 | 42 | 1.7 | 6.1 | 0.00 | 0.00 | 0.00 | 47 | 1017.5 |
| 20260901073235 | 57 | 51 | 4.3 | 6.1 | 0.00 | 0.00 | 0.00 | 47 | 1017.4 |
| 20260901072236 | 57 | 40 | 4.3 | 7.0 | 0.00 | 0.00 | 0.00 | 48 | 1017.4 |
| 20260901071735 | 57 | 76 | 3.5 | 7.0 | 0.00 | 0.00 | 0.00 | 48 | 1017.5 |
| 20260901071236 | 57 | 71 | 3.5 | 7.0 | 0.00 | 0.00 | 0.00 | 50 | 1017.5 |
| 20260901065735 | 58 | 75 | 3.5 | 6.1 | 0.00 | 0.00 | 0.00 | 49 | 1017.8 |
| 20260901065234 | 58 | 69 | 5.2 | 7.8 | 0.00 | 0.00 | 0.00 | 50 | 1017.8 |
| 20260901064734 | 58 | 67 | 4.3 | 7.8 | 0.00 | 0.00 | 0.00 | 50 | 1017.8 |
| 20260901063734 | 58 | 58 | 5.2 | 5.2 | 0.00 | 0.00 | 0.00 | 49 | 1017.9 |
| 20260901063234 | 58 | 57 | 4.3 | 6.1 | 0.00 | 0.00 | 0.00 | 49 | 1017.9 |
| 20260901062734 | 58 | 51 | 3.5 | 6.1 | 0.00 | 0.00 | 0.00 | 48 | 1017.8 |
| 20260901062223 | 58 | 61 | 4.3 | 6.1 | 0.00 | 0.00 | 0.00 | 50 | 1017.8 |
| 20260901061234 | 58 | 47 | 4.3 | 6.1 | 0.00 | 0.00 | 0.00 | 46 | 1017.8 |
| 20260901060734 | 59 | 17 | 3.5 | 6.1 | 0.00 | 0.00 | 0.00 | 47 | 1017.9 |
| 20260901060234 | 59 | 44 | 2.6 | 4.3 | 0.00 | 0.00 | 0.00 | 46 | 1017.9 |
| 20260901055234 | 58 | 44 | 2.6 | 3.5 | 0.00 | 0.00 | 0.00 | 47 | 1017.7 |
| 20260901054734 | 58 | 48 | 2.6 | 3.5 | 0.00 | 0.00 | 0.00 | 45 | 1017.6 |
| 20260901054234 | 58 | 56 | 0.0 | 3.5 | 0.00 | 0.00 | 0.00 | 45 | 1017.6 |
| 20260901053734 | 59 | 64 | 0.9 | 4.3 | 0.00 | 0.00 | 0.00 | 47 | 1017.8 |
| 20260901052734 | 59 | 80 | 2.6 | 4.3 | 0.00 | 0.00 | 0.00 | 50 | 1017.8 |
| 20260901052234 | 59 | 74 | 0.9 | 6.1 | 0.00 | 0.00 | 0.00 | 52 | 1017.9 |
| 20260901051733 | 59 | 72 | 1.7 | 6.1 | 0.00 | 0.00 | 0.00 | 52 | 1017.9 |
| 20260901051233 | 59 | 67 | 2.6 | 4.3 | 0.00 | 0.00 | 0.00 | 50 | 1017.8 |
| 20260901050234 | 59 | 76 | 1.7 | 6.1 | 0.00 | 0.00 | 0.00 | 51 | 1017.9 |
| 20260901045733 | 59 | 84 | 3.5 | 4.3 | 0.00 | 0.00 | 0.00 | 50 | 1017.5 |
| 20260901045234 | 59 | 71 | 2.6 | 4.3 | 0.00 | 0.00 | 0.00 | 50 | 1017.4 |
| 20260901044733 | 59 | 73 | 2.6 | 4.3 | 0.00 | 0.00 | 0.00 | 49 | 1017.5 |
| 20260901044234 | 59 | 61 | 2.6 | 3.5 | 0.00 | 0.00 | 0.00 | 51 | 1017.5 |
| 20260901043733 | 59 | 67 | 2.6 | 3.5 | 0.00 | 0.00 | 0.00 | 53 | 1017.6 |
| 20260901043233 | 60 | 54 | 2.6 | 5.2 | 0.00 | 0.00 | 0.00 | 51 | 1017.6 |
| 20260901042733 | 60 | 63 | 2.6 | 5.2 | 0.00 | 0.00 | 0.00 | 56 | 1017.5 |
| 20260901042233 | 60 | 55 | 2.6 | 4.3 | 0.00 | 0.00 | 0.00 | 57 | 1017.5 |
| 20260901041733 | 60 | 63 | 2.6 | 4.3 | 0.00 | 0.00 | 0.00 | 57 | 1017.4 |
| 20260901041233 | 60 | 53 | 1.7 | 4.3 | 0.00 | 0.00 | 0.00 | 58 | 1017.5 |
| 20260901040733 | 60 | 67 | 1.7 | 4.3 | 0.00 | 0.00 | 0.00 | 56 | 1017.4 |
| 20260901040233 | 60 | 92 | 2.6 | 5.2 | 0.00 | 0.00 | 0.00 | 56 | 1017.3 |
| 20260901034732 | 61 | 72 | 0.0 | 4.3 | 0.00 | 0.00 | 0.00 | 56 | 1017.0 |
| 20260901034232 | 61 | 44 | 0.9 | 4.3 | 0.00 | 0.00 | 0.00 | 56 | 1016.9 |
| 20260901033232 | 62 | 63 | 3.5 | 4.3 | 0.00 | 0.00 | 0.00 | 61 | 1016.8 |
| 20260901032732 | 62 | 76 | 2.6 | 4.3 | 0.00 | 0.00 | 0.00 | 62 | 1016.8 |
| 20260901032232 | 63 | 85 | 0.9 | 3.5 | 0.00 | 0.00 | 0.00 | 62 | 1016.8 |
| 20260901031732 | 63 | 77 | 0.9 | 3.5 | 0.00 | 0.00 | 0.00 | 62 | 1016.8 |
| 20260901030732 | 64 | 69 | 2.6 | 2.6 | 0.00 | 0.00 | 0.00 | 61 | 1016.6 |
| 20260901025732 | 65 | 57 | 2.6 | 2.6 | 0.00 | 0.00 | 0.00 | 59 | 1015.6 |
| 20260901025232 | 66 | 303 | 0.0 | 2.6 | 0.00 | 0.00 | 0.00 | 58 | 1015.7 |
| 20260901024732 | 67 | 298 | 2.6 | 2.6 | 0.00 | 0.00 | 0.00 | 58 | 1015.7 |
| 20260901024232 | 68 | 236 | 1.7 | 2.6 | 0.00 | 0.00 | 0.00 | 57 | 1015.9 |
| 20260901023231 | 69 | 237 | 0.0 | 0.9 | 0.00 | 0.00 | 0.00 | 56 | 1015.8 |
| 20260901022732 | 70 | 236 | 0.0 | 1.7 | 0.00 | 0.00 | 0.00 | 55 | 1015.9 |
| 20260901022231 | 70 | 237 | 0.0 | 2.6 | 0.00 | 0.00 | 0.00 | 55 | 1015.8 |
| 20260901021732 | 71 | 236 | 0.0 | 2.6 | 0.00 | 0.00 | 0.00 | 55 | 1015.7 |
| 20260901021231 | 71 | 236 | 1.7 | 2.6 | 0.00 | 0.00 | 0.00 | 54 | 1015.6 |
| 20260901020731 | 72 | 237 | 0.0 | 3.5 | 0.00 | 0.00 | 0.00 | 53 | 1015.7 |
| 20260901020231 | 72 | 237 | 0.9 | 4.3 | 0.00 | 0.00 | 0.00 | 52 | 1015.7 |
| 20260901015732 | 72 | 238 | 0.9 | 4.3 | 0.00 | 0.00 | 0.00 | 51 | 1014.0 |
| 20260901015231 | 73 | 229 | 0.9 | 7.0 | 0.00 | 0.00 | 0.00 | 50 | 1014.2 |
| 20260901014731 | 74 | 238 | 4.3 | 7.0 | 0.00 | 0.00 | 0.00 | 50 | 1014.3 |
| 20260901014231 | 74 | 228 | 0.9 | 5.2 | 0.00 | 0.00 | 0.00 | 49 | 1014.3 |
| 20260901013731 | 75 | 228 | 1.7 | 4.3 | 0.00 | 0.00 | 0.00 | 48 | 1014.5 |
| 20260901013230 | 75 | 245 | 1.7 | 7.8 | 0.00 | 0.00 | 0.00 | 47 | 1014.6 |
| 20260901012730 | 76 | 244 | 0.9 | 7.8 | 0.00 | 0.00 | 0.00 | 46 | 1014.6 |
| 20260901012230 | 77 | 233 | 0.9 | 7.0 | 0.00 | 0.00 | 0.00 | 45 | 1014.8 |
| 20260901011731 | 77 | 236 | 1.7 | 7.0 | 0.00 | 0.00 | 0.00 | 44 | 1014.8 |
| 20260901011231 | 78 | 238 | 2.6 | 7.0 | 0.00 | 0.00 | 0.00 | 43 | 1014.7 |
| 20260901010731 | 79 | 215 | 0.9 | 6.1 | 0.00 | 0.00 | 0.00 | 43 | 1014.9 |
| 20260901010249 | 79 | 254 | 1.7 | 7.0 | 0.00 | 0.00 | 0.00 | 41 | 1014.9 |
| 20260901005230 | 79 | 215 | 0.9 | 7.8 | 0.00 | 0.00 | 0.00 | 40 | 1014.7 |
| 20260901004730 | 80 | 246 | 0.0 | 9.6 | 0.00 | 0.00 | 0.00 | 39 | 1014.8 |
| 20260901004230 | 80 | 232 | 7.0 | 9.6 | 0.00 | 0.00 | 0.00 | 38 | 1014.7 |
| 20260901003731 | 80 | 225 | 4.3 | 10.4 | 0.00 | 0.00 | 0.00 | 37 | 1014.7 |
| 20260901003230 | 80 | 229 | 3.5 | 10.4 | 0.00 | 0.00 | 0.00 | 37 | 1014.8 |
| 20260901002230 | 81 | 259 | 1.7 | 8.7 | 0.00 | 0.00 | 0.00 | 37 | 1015.2 |
| 20260901001730 | 82 | 239 | 1.7 | 9.6 | 0.00 | 0.00 | 0.00 | 37 | 1015.1 |
| 20260901001230 | 82 | 261 | 3.5 | 9.6 | 0.00 | 0.00 | 0.00 | 37 | 1015.2 |
| 20260901000729 | 82 | 229 | 4.3 | 11.3 | 0.00 | 0.00 | 0.00 | 37 | 1015.2 |
| 20260901000230 | 83 | 236 | 4.3 | 11.3 | 0.00 | 0.00 | 0.00 | 37 | 1015.5 |
| 20260831235730 | 83 | 261 | 6.1 | 9.6 | 0.00 | 0.00 | 0.00 | 36 | 1015.5 |
| 20260831235230 | 83 | 208 | 4.3 | 9.6 | 0.00 | 0.00 | 0.00 | 37 | 1015.5 |
| 20260831234730 | 83 | 236 | 5.2 | 10.4 | 0.00 | 0.00 | 0.00 | 37 | 1015.5 |
| 20260831234229 | 83 | 213 | 0.0 | 10.4 | 0.00 | 0.00 | 0.00 | 37 | 1015.4 |